(170967) = 2005 CT15

Discovered at Socorro on 2005-02-02 by LINEAR.

Orbit

Orbit type: Main Belt

Note: WebGL enabled browser required.

epoch2024-03-31.0
epoch JD2460400.5
perihelion date2022-04-17.72801
perihelion JD2459687.22801
argument of perihelion (°)139.53474
ascending node (°)296.81399
inclination (°)3.87064
eccentricity0.1633121
perihelion distance (AU)1.9371304
Tisserand w.r.t. Jupiter3.6
ΔV w.r.t. Earth (km/sec)8.7
semimajor axis (AU)2.3152365
mean anomaly (°)199.55654
mean daily motion (°/day)0.27977620
aphelion distance (AU)2.693
period (years)3.52
P-vector [x]0.23469060
P-vector [y]0.87352438
P-vector [z]0.42646861
Q-vector [x]-0.97020141
Q-vector [y]0.23768346
Q-vector [z]0.04707228
absolute magnitude17.26
phase slope0.15
uncertainty0
referenceMPEC 2024-E179
observations used417
oppositions14
arc length (days)10766
first opposition used1993
last opposition used2023
residual rms (arc-secs)0.75
perturbers coarse indicatorM-v
perturbers precise indicator003Ek
first observation date used1993-11-21.0
last observation date used2023-05-14.0
computer nameMPCLINUX
JD of orbit computation2456966.763958
perihelion JD uncertainty (days)1.2466E-04
argument of perihelion uncertainty (°)8.4477E-05
ascending node uncertainty (°)7.4373E-05
inclination uncertainty (°)5.2615E-06
eccentricity uncertainty 3.6689E-08
perihelion distance uncertainty (AU)8.6425E-08
Minimum Orbit Intersection Distances (in AU)
for orbit epoch: 2460400.5, reference: E2024-GB3
Mercury1.62965
Venus1.2177
Earth0.95478
Mars0.36596
Jupiter2.54931
Saturn7.08232
Uranus16.086
Neptune27.6598

Observations

428 total observations over interval: 1993 11 21.12277 – 2023 05 14.292936
These data are available for download (format description).

Date (UT) J2000 RA J2000 Dec Magn Location Ref
1993 11 21.12277 01 45 35.65 +18 21 25.5 19.5 V 691 – Steward Observatory, Kitt Peak-Spacewatch MPS 138448
1993 11 21.15695 01 45 34.41 +18 21 13.5   691 – Steward Observatory, Kitt Peak-Spacewatch MPS 138448
1993 11 21.19081 01 45 33.32 +18 21 02.2   691 – Steward Observatory, Kitt Peak-Spacewatch MPS 138448
2000 10 03.35135 01 40 40.78 +18 13 47.5 18.8   704 – Lincoln Laboratory ETS, New Mexico MPS 138448
2000 10 03.36629 01 40 40.04 +18 13 45.2 19.7   704 – Lincoln Laboratory ETS, New Mexico MPS 138448
2000 10 03.39623 01 40 38.56 +18 13 41.9 19.6   704 – Lincoln Laboratory ETS, New Mexico MPS 138448
2000 10 25.31641 01 20 02.89 +16 34 49.4 19.2   704 – Lincoln Laboratory ETS, New Mexico MPS 138448
2000 10 25.32989 01 20 02.14 +16 34 46.4 18.9   704 – Lincoln Laboratory ETS, New Mexico MPS 138448
2000 10 25.34339 01 20 01.28 +16 34 41.4 19.1   704 – Lincoln Laboratory ETS, New Mexico MPS 138448
2005 01 17.42656 09 11 39.17 +14 53 22.0 19.4   704 – Lincoln Laboratory ETS, New Mexico MPS 138448
2005 01 17.43983 09 11 38.40 +14 53 23.1 19.7   704 – Lincoln Laboratory ETS, New Mexico MPS 138448
2005 01 17.45374 09 11 37.48 +14 53 24.0 19.7   704 – Lincoln Laboratory ETS, New Mexico MPS 138448
2005 01 17.46706 09 11 36.77 +14 53 24.6 19.6   704 – Lincoln Laboratory ETS, New Mexico MPS 138448
2005 02 02.28600 08 54 48.40 +15 20 52.4 19.0   704 – Lincoln Laboratory ETS, New Mexico MPS 126427
2005 02 02.29881 08 54 47.52 +15 20 54.7 19.7   704 – Lincoln Laboratory ETS, New Mexico MPS 126427
2005 02 02.31165 08 54 46.64 +15 20 55.0 19.6   704 – Lincoln Laboratory ETS, New Mexico MPS 126427
2005 02 02.32437 08 54 45.78 +15 20 57.6 19.4   704 – Lincoln Laboratory ETS, New Mexico MPS 126427
2005 02 04.205807 08 52 43.077 +15 24 35.58 19.47 V 645 – Apache Point-Sloan Digital Sky Survey MPS 390128
2005 02 04.209279 08 52 42.842 +15 24 35.99 20.16   645 – Apache Point-Sloan Digital Sky Survey MPS 390128
2005 02 04.23013 08 52 41.49 +15 24 38.7 19.6 V 691 – Steward Observatory, Kitt Peak-Spacewatch MPS 126427
2005 02 04.25973 08 52 39.49 +15 24 42.3 19.5 V 691 – Steward Observatory, Kitt Peak-Spacewatch MPS 126427
2005 02 04.28897 08 52 37.51 +15 24 45.7 19.5 V 691 – Steward Observatory, Kitt Peak-Spacewatch MPS 126427
2005 04 05.13253 08 37 21.21 +15 19 09.5 20.5 R G96 – Mt. Lemmon Survey MPS 138448
2005 04 05.13914 08 37 21.40 +15 19 09.1 20.5 R G96 – Mt. Lemmon Survey MPS 138448
2005 04 05.14578 08 37 21.66 +15 19 07.4 20.1 R G96 – Mt. Lemmon Survey MPS 138448
2005 04 05.15240 08 37 21.91 +15 19 06.4 20.0 R G96 – Mt. Lemmon Survey MPS 138448
2007 09 12.31685 01 15 17.13 +14 51 58.2 19.8 V 703 – Catalina Sky Survey MPS 215136
2007 09 12.32333 01 15 16.84 +14 51 59.6 20.0 V 703 – Catalina Sky Survey MPS 215136
2007 09 12.32988 01 15 16.66 +14 51 59.2 19.3 V 703 – Catalina Sky Survey MPS 215136
2007 09 12.33642 01 15 16.56 +14 52 00.4 19.9 V 703 – Catalina Sky Survey MPS 215136
2007 09 14.29910 01 14 18.36 +14 52 19.5 19.3 C 704 – Lincoln Laboratory ETS, New Mexico MPS 291374
2007 09 14.32235 01 14 17.59 +14 52 19.6 19.3 C 704 – Lincoln Laboratory ETS, New Mexico MPS 291374
2007 09 15.41635 01 13 41.79 +14 52 08.0 19.6 R 699 – Lowell Observatory-LONEOS MPS 216221
2007 09 15.43923 01 13 41.07 +14 52 07.9   699 – Lowell Observatory-LONEOS MPS 216221
2007 09 15.46211 01 13 40.22 +14 52 06.9   699 – Lowell Observatory-LONEOS MPS 216221
2007 09 15.48501 01 13 39.42 +14 52 05.9   699 – Lowell Observatory-LONEOS MPS 216221
2007 10 09.25295 00 54 06.78 +13 44 14.2 19.8   704 – Lincoln Laboratory ETS, New Mexico MPS 218657
2007 10 09.26390 00 54 06.04 +13 44 10.6 19.5   704 – Lincoln Laboratory ETS, New Mexico MPS 218657
2007 10 09.27495 00 54 05.37 +13 44 07.8 19.9   704 – Lincoln Laboratory ETS, New Mexico MPS 218657
2007 10 09.28592 00 54 04.70 +13 44 04.1 19.9   704 – Lincoln Laboratory ETS, New Mexico MPS 218657
2007 10 09.28651 00 54 04.65 +13 44 03.0 19.4 r 699 – Lowell Observatory-LONEOS MPS 218657
2007 10 09.29688 00 54 04.07 +13 43 59.7 20.0   704 – Lincoln Laboratory ETS, New Mexico MPS 218657
2007 10 09.30843 00 54 03.28 +13 43 55.0   699 – Lowell Observatory-LONEOS MPS 218657
2007 10 09.33038 00 54 01.95 +13 43 48.7   699 – Lowell Observatory-LONEOS MPS 218657
2007 10 09.35232 00 54 00.49 +13 43 42.7   699 – Lowell Observatory-LONEOS MPS 218657
2007 10 15.20213 00 48 18.50 +13 11 36.2 19.1   704 – Lincoln Laboratory ETS, New Mexico MPS 220525
2007 10 15.21352 00 48 17.86 +13 11 32.6 19.6   704 – Lincoln Laboratory ETS, New Mexico MPS 220525
2007 10 15.22473 00 48 17.13 +13 11 28.2 19.8   704 – Lincoln Laboratory ETS, New Mexico MPS 220525
2007 10 15.24733 00 48 15.76 +13 11 21.5 19.7   704 – Lincoln Laboratory ETS, New Mexico MPS 220525
2007 11 02.24297 00 33 40.32 +11 23 33.7 19.9   704 – Lincoln Laboratory ETS, New Mexico MPS 224868
2007 11 02.25460 00 33 39.96 +11 23 29.3 20.2   704 – Lincoln Laboratory ETS, New Mexico MPS 224868
2007 11 02.26625 00 33 39.47 +11 23 25.6 19.9   704 – Lincoln Laboratory ETS, New Mexico MPS 224868
2007 11 02.27788 00 33 39.04 +11 23 21.7 20.2   704 – Lincoln Laboratory ETS, New Mexico MPS 224868
2007 11 02.28953 00 33 38.62 +11 23 17.2 20.1   704 – Lincoln Laboratory ETS, New Mexico MPS 224868
2007 11 07.19611 00 31 06.83 +10 57 00.7 19.3   704 – Lincoln Laboratory ETS, New Mexico MPS 224868
2007 11 07.20842 00 31 06.48 +10 56 57.2 19.4   704 – Lincoln Laboratory ETS, New Mexico MPS 224868
2007 11 07.22074 00 31 06.05 +10 56 53.4 19.4   704 – Lincoln Laboratory ETS, New Mexico MPS 224868
2007 11 07.24530 00 31 05.36 +10 56 45.1 19.7   704 – Lincoln Laboratory ETS, New Mexico MPS 224868
2010 06 18.38792 20 49 36.19 -18 01 55.9 21.9 V G96 – Mt. Lemmon Survey MPS 353347
2010 06 18.39496 20 49 36.01 -18 01 56.1 21.2 V G96 – Mt. Lemmon Survey MPS 353347
2010 06 18.40206 20 49 35.86 -18 01 56.4 21.3 V G96 – Mt. Lemmon Survey MPS 353347
2010 06 18.40918 20 49 35.76 -18 01 56.7 20.7 V G96 – Mt. Lemmon Survey MPS 353347
2011 11 27.46860 08 47 57.22 +19 23 09.9 20.6 V G96 – Mt. Lemmon Survey MPS 403538
2011 11 27.47677 08 47 57.48 +19 23 08.0 20.5 V G96 – Mt. Lemmon Survey MPS 403538
2011 11 27.48499 08 47 57.73 +19 23 06.2 20.4 V G96 – Mt. Lemmon Survey MPS 403538
2011 11 27.49310 08 47 58.05 +19 23 05.0 20.3 V G96 – Mt. Lemmon Survey MPS 403538
2011 12 08.47446 08 52 30.559 +18 44 54.96 20.4 z F51 – Pan-STARRS 1, Haleakala MPS 404155
2011 12 08.48522 08 52 30.678 +18 44 53.26 20.2 z F51 – Pan-STARRS 1, Haleakala MPS 404155
2011 12 24.41914 08 50 47.94 +18 14 50.9 20.5 V 703 – Catalina Sky Survey MPS 405662
2011 12 24.42763 08 50 47.58 +18 14 50.6 19.9 V 703 – Catalina Sky Survey MPS 405662
2011 12 24.43611 08 50 47.29 +18 14 49.4 20.3 V 703 – Catalina Sky Survey MPS 405662
2011 12 24.44459 08 50 47.07 +18 14 49.7 19.9 V 703 – Catalina Sky Survey MPS 405662
2012 01 02.50399 08 45 23.77 +18 11 18.5 19.3 R 290 – Mt. Graham-VATT MPS 412664
2012 01 02.50946 08 45 23.53 +18 11 18.6 19.4 R 290 – Mt. Graham-VATT MPS 412664
2012 01 02.51325 08 45 23.32 +18 11 18.5 19.3 R 290 – Mt. Graham-VATT MPS 412664
2012 01 02.51707 08 45 23.15 +18 11 18.5 19.3 R 290 – Mt. Graham-VATT MPS 412664
2012 01 02.52089 08 45 23.00 +18 11 18.5 19.3 R 290 – Mt. Graham-VATT MPS 412664
2012 01 02.52471 08 45 22.78 +18 11 18.4 19.3 R 290 – Mt. Graham-VATT MPS 412664
2012 01 02.52851 08 45 22.60 +18 11 18.4 19.3 R 290 – Mt. Graham-VATT MPS 412664
2012 01 02.53230 08 45 22.44 +18 11 18.3 19.3 R 290 – Mt. Graham-VATT MPS 412664
2012 01 02.53610 08 45 22.26 +18 11 18.3 19.3 R 290 – Mt. Graham-VATT MPS 412664
2012 01 02.53988 08 45 22.08 +18 11 18.4 19.0 R 290 – Mt. Graham-VATT MPS 412664
2012 01 02.54370 08 45 21.93 +18 11 18.4 19.3 R 290 – Mt. Graham-VATT MPS 412664
2012 01 14.34763 08 34 32.77 +18 17 20.9 19.1 V 703 – Catalina Sky Survey MPS 408533
2012 01 14.35323 08 34 32.41 +18 17 21.2 19.2 V 703 – Catalina Sky Survey MPS 408533
2012 01 14.35883 08 34 31.94 +18 17 20.3 19.5 V 703 – Catalina Sky Survey MPS 408533
2012 01 14.36444 08 34 31.58 +18 17 21.1 18.7 V 703 – Catalina Sky Survey MPS 408533
2012 01 20.25873 08 28 07.14 +18 22 49.2 19.1 V 703 – Catalina Sky Survey MPS 408533
2012 01 20.26434 08 28 06.74 +18 22 49.5 19.3 V 703 – Catalina Sky Survey MPS 408533
